Hourly Data Report for March 25, 2018

TORONTO CITY
ONTARIO

43°40'00.000" N
79°24'00.000" W
112.50 m
6158355
71508
XTO

Download Data

Hourly Data (March 2018)
Hourly Data Report for March 25, 2018
TIME
LST
Temp Definition
°C
Dew Point Definition
°C
Rel Hum Definition
%
Precip. Amount Definition
mm

Wind Dir Definition
10's deg

Wind Spd Definition
km/h
Visibility Definition
km
Stn Press Definition
kPa
Hmdx Definition


Wind Chill Definition


Weather Definition


00:00 -3.3 -17.7 32 0.0 LegendMM LegendMM   101.50     LegendNANA
01:00 -3.9 -17.3 34 0.0 LegendMM LegendMM   101.55     LegendNANA
02:00 -4.6 -16.8 38 0.0 LegendMM LegendMM   101.59     LegendNANA
03:00 -5.0 -16.6 40 0.0 LegendMM LegendMM   101.62     LegendNANA
04:00 -5.6 -16.4 42 0.0 LegendMM LegendMM   101.64     LegendNANA
05:00 -6.1 -15.7 46 0.0 LegendMM LegendMM   101.72     LegendNANA
06:00 -6.2 -16.0 46 0.0 LegendMM LegendMM   101.78     LegendNANA
07:00 -6.3 -15.6 47 0.0 LegendMM LegendMM   101.88     LegendNANA
08:00 -4.0 -15.0 42 0.0 LegendMM LegendMM   101.97     LegendNANA
09:00 -2.3 -14.0 40 0.0 LegendMM LegendMM   102.03     LegendNANA
10:00 -0.7 -12.9 39 0.0 LegendMM LegendMM   102.05     LegendNANA
11:00 0.7 -9.9 45 0.0 LegendMM LegendMM   102.05     LegendNANA
12:00 1.0 -7.7 52 0.0 LegendMM LegendMM   102.05     LegendNANA
13:00 1.5 -6.6 55 0.0 LegendMM LegendMM   102.06     LegendNANA
14:00 1.5 -6.6 55 0.0 LegendMM LegendMM   102.03     LegendNANA
15:00 1.2 -6.1 58 0.0 LegendMM LegendMM   102.01     LegendNANA
16:00 1.1 -5.6 61 0.0 LegendMM LegendMM   102.03     LegendNANA
17:00 1.4 -5.5 60 0.0 LegendMM LegendMM   102.04     LegendNANA
18:00 1.3 -5.2 62 0.0 LegendMM LegendMM   102.07     LegendNANA
19:00 1.3 -5.8 59 0.0 LegendMM LegendMM   102.12     LegendNANA
20:00 0.9 -4.6 67 0.0 LegendMM LegendMM   102.15     LegendNANA
21:00 0.9 -3.9 70 0.0 LegendMM LegendMM   102.18     LegendNANA
22:00 1.1 -3.6 71 0.0 LegendMM LegendMM   102.18     LegendNANA
23:00 1.1 -3.3 73 0.0 LegendMM LegendMM   102.18     LegendNANA

Notes on Data Quality.

Legend

  • E = Estimated
  • M = Missing
  • NA = Not Available*
  • [empty] = Indicates an unobserved value
Date modified: